Regional Weather Roundup
Issued by NWS

Home | Current Version | Previous Version | Text Only | Print | Product List | Glossary Off
Versions: 1 2 3 4 5 6 7 8 9 10 11 12 13 14 15 16 17 18 19 20 21 22 23 24 25 26 27 28 29 30 31 32 33 34 35 36 37 38 39 40 41 42 43 44 45 46 47 48 49 50

709
ASUS44 KJAN 010310
RWRMS

MISSISSIPPI HOURLY WEATHER ROUNDUP
NATIONAL WEATHER SERVICE JACKSON MS
900 PM CST SAT JAN 31 2015

NOTE: "FAIR: INDICATES FEW OR NO CLOUDS BELOW 12,000 FEET WITH NO
SIGNIFICANT WEATHER AND/OR OBSTRUCTIONS TO VISIBILITY.

MSZ001>002-007>008-010>013-018>021-025>028-034>036-010400-
NORTHWEST MISSISSIPPI

CITY           SKY/WX    TMP DP  RH WIND       PRES   REMARKS
CLARKSDALE     MOCLDY    45  36  70 E7        30.12F
CLEVELAND      FAIR      49  34  56 S5        30.13F
GREENWOOD      CLOUDY    53  24  32 SE8       30.15F
GREENVILLE     CLOUDY    48  35  60 SE8       30.12F
GRENADA        FAIR      46  32  57 SE5       30.16F
OLIVE BRANCH   PTCLDY    43  28  56 E3        30.15S
OXFORD         FAIR      46  23  39 SE6       30.17S
TUNICA         CLOUDY    41  34  75 E6        30.13F
$$

MSZ003>006-009-014>017-022>024-029>033-037>039-010400-
NORTHEAST MISSISSIPPI

CITY           SKY/WX    TMP DP  RH WIND       PRES   REMARKS
COLUMBUS AFB   CLOUDY    48  24  38 CALM      30.19F
GOLDN TRIANGLE CLOUDY    48  25  40 S7        30.18S
STARKVILLE     FAIR      46  27  46 SE5       30.19S
TUPELO         CLOUDY    49  23  36 S7        30.17F
$$

MSZ040-058-010400-
CENTRAL MISSISSIPPI

CITY           SKY/WX    TMP DP  RH WIND       PRES   REMARKS
JACKSON INTL   CLOUDY    50  31  48 S5        30.17F
JACKSON HAWKNS CLOUDY    53  28  38 SE9       30.17S
MERIDIAN KEY   CLOUDY    44  31  60 CALM      30.20F
MERIDIAN NAS   MOCLDY    47  27  45 SE5       30.20F
RAYMOND        FAIR      52  46  82 SE6       30.16F
VICKSBURG      CLOUDY    52  33  48 SE8       30.15F
$$

MSZ059>079-010400-
SOUTH MISSISSIPPI

CITY           SKY/WX    TMP DP  RH WIND       PRES   REMARKS
BROOKHAVEN     FAIR      52  37  58 SE5       30.18F
HATTIESBURG    MOCLDY    46  38  73 S3        30.21F
MCCOMB         MOCLDY    50  42  74 SE5       30.17S
NATCHEZ        MOCLDY    55  37  50 SE8       30.14F
PINE BELT      MOCLDY    48  30  49 S3        30.20F
$$

MSZ080>082-010400-
COASTAL MISSISSIPPI

CITY           SKY/WX    TMP DP  RH WIND       PRES   REMARKS
BAY ST LOUIS   CLEAR     52  45  76 E5        30.19F
BILOXI         FAIR      52  46  80 E6        30.19F
PASCAGOULA     MOCLDY    44  42  93 E3        30.20F
GULFPORT       PTCLDY    52  45  77 E5        30.19F
$$



USA.gov is the U.S. government's official web portal to all federal, state and local government web resources and services.